indice_tiempo,nivel_general,alimentos_bebidas,indumentaria,vivienda_servicios_basicos,equipamiento_mantenimiento_hogar,atencion_medica_gastos_salud,transporte_comunicaciones,esparcimiento,educacion,otros_bienes_servicios_varios
2005-10-01,116.16,120.91,115.43,111.08,128.17,108.2,108.97,110.53,122.76,126.0
2005-11-01,117.45,123.63,116.2,112.69,128.85,109.03,109.31,109.25,123.61,128.23
2005-12-01,117.92,124.34,116.15,113.72,128.53,110.46,109.64,108.85,123.54,129.21
2006-01-01,119.32,125.33,115.95,113.25,129.19,111.82,111.91,115.51,123.38,128.32
2006-02-01,119.55,125.59,114.75,114.73,129.57,112.27,112.35,114.71,123.03,129.41
2006-03-01,120.53,127.73,115.76,115.25,131.1,111.82,112.82,112.31,127.43,131.1
2006-04-01,121.21,127.92,119.04,115.51,131.04,112.01,114.31,111.85,126.91,132.42
2006-05-01,121.62,126.93,120.92,117.13,131.41,113.07,115.01,113.07,130.46,132.68
2006-06-01,122.25,126.91,122.37,117.58,133.7,113.86,116.16,112.52,132.6,133.2
2006-07-01,122.62,125.69,121.96,118.97,135.34,113.96,116.62,117.54,132.96,133.34
2006-08-01,122.86,126.43,122.87,119.14,135.75,114.28,115.66,118.03,133.85,133.06
2006-09-01,123.38,126.81,125.65,119.23,136.15,114.53,116.04,116.9,137.17,134.47
2006-10-01,123.99,128.04,125.97,119.63,137.62,114.65,116.22,116.6,137.68,134.6
2006-11-01,125.28,130.73,128.36,122.28,137.51,114.54,115.75,116.94,137.63,135.25
2006-12-01,127.32,135.26,128.83,123.83,138.45,114.55,115.97,119.53,138.95,135.4
2007-01-01,128.74,137.37,126.09,124.66,138.79,115.66,117.92,123.02,138.92,137.33
2007-02-01,129.59,139.46,126.22,124.79,139.75,116.26,117.86,123.85,138.55,136.87
2007-03-01,130.94,140.92,131.33,125.51,139.96,117.07,120.26,119.75,143.54,138.27
2007-04-01,133.91,147.48,133.57,127.66,141.76,118.83,120.51,120.75,143.99,139.02
2007-05-01,136.7,151.47,136.32,130.02,144.42,119.5,122.52,120.3,158.7,141.6
2007-06-01,140.33,159.46,137.21,131.57,146.2,120.7,124.48,120.75,161.77,143.33
2007-07-01,143.91,166.38,138.53,132.9,146.83,122.17,127.04,123.71,163.99,145.61
2007-08-01,148.69,174.02,140.94,134.31,155.22,124.35,130.49,127.92,166.88,146.8
2007-09-01,151.67,179.16,146.39,134.71,157.92,124.81,132.39,128.91,167.69,148.54
2007-10-01,153.84,182.75,148.88,136.87,159.02,125.21,134.33,129.42,167.74,149.22
2007-11-01,153.22,176.79,152.62,138.71,159.68,125.84,136.97,130.53,171.44,150.42
2007-12-01,154.72,177.42,155.1,140.88,161.66,129.01,138.34,131.1,171.6,154.85
2008-01-01,157.85,182.92,153.75,142.82,163.17,129.88,139.92,139.14,171.54,156.5
2008-02-01,161.38,191.94,157.46,145.4,165.58,130.56,138.69,138.58,172.01,158.13
2008-03-01,167.94,206.34,165.18,146.23,169.35,132.39,139.98,138.42,190.44,159.83
2008-04-01,172.96,214.22,170.9,148.78,172.57,133.76,145.0,139.53,198.1,162.19
2008-05-01,173.39,209.95,175.38,151.41,174.06,135.82,148.21,141.37,199.52,165.02
2008-06-01,177.59,213.84,178.99,159.79,175.37,138.11,151.57,150.71,200.17,166.87
2008-07-01,180.08,216.14,178.71,162.1,180.21,140.16,153.81,155.66,201.54,170.26
2008-08-01,181.55,216.37,180.55,166.48,181.57,140.53,155.34,158.14,204.46,173.04
2008-09-01,183.51,216.23,190.7,167.33,186.13,143.69,155.83,161.0,211.01,172.89
2008-10-01,184.58,217.39,192.27,160.84,187.88,144.97,157.22,164.37,217.769833219,177.15
2008-11-01,185.76,218.18,194.86,164.16,188.97,145.48,157.59,164.56,224.11,180.62
2008-12-01,186.59,217.74,193.83,167.36,191.51,147.45,158.23,167.88,223.07,181.8
2009-01-01,188.75,220.01,190.82,169.06,193.29,150.89,159.93,175.88,225.02,183.5
2009-02-01,188.73,219.26,187.79,169.97,193.66,151.5,160.69,174.94,228.05,188.16
2009-03-01,193.14,223.64,201.83,181.43,196.56,152.95,162.33,170.79,244.65,190.03
2009-04-01,196.66,228.48,206.09,184.1,200.7,157.16,164.18,172.61,246.62,193.89
2009-05-01,198.36,229.01,209.93,188.5,208.62,158.32,164.83,171.5,246.69,195.77
2009-06-01,199.41,228.66,213.86,190.58,211.05,159.47,165.69,173.17,248.73,196.21
2009-07-01,201.41,230.74,210.88,192.19,214.55,160.96,168.13,179.38,248.93,196.66
2009-08-01,205.15,236.0,215.14,195.18,217.44,164.45,170.81,180.14,251.1,202.95
2009-09-01,208.31,238.65,223.54,199.34,221.84,167.81,172.36,181.48,253.92,206.36
2009-10-01,211.77,243.87,226.6,200.96,225.8,168.47,176.72,181.13,255.24,209.08
2009-11-01,214.2,244.59,231.78,205.6,227.27,172.58,178.77,185.24,256.42,212.67
2009-12-01,221.06,259.76,233.55,207.9,229.79,174.36,181.19,191.99,257.55,214.9
2010-01-01,225.96,270.6,230.29,212.86,230.05,175.37,182.89,199.88,258.33,215.57
2010-02-01,235.8,298.92,228.17,214.41,232.72,176.68,183.38,200.99,258.86,217.17
2010-03-01,242.0,307.79,240.78,215.84,240.46,179.58,185.11,200.11,293.6,224.87
2010-04-01,245.31,310.6,245.06,218.75,243.63,182.58,188.85,203.17,298.45,229.52
2010-05-01,249.19,316.26,251.98,221.43,248.32,185.33,191.85,201.77,302.86,231.12
2010-06-01,251.9,319.39,253.42,224.31,250.12,185.9,193.75,203.52,315.58,238.59
2010-07-01,255.59,321.35,255.82,228.37,253.17,188.42,198.98,210.5,323.57,244.36
2010-08-01,258.3,324.64,252.88,230.59,256.53,194.25,200.98,214.43,330.64,247.89
2010-09-01,262.4,329.8,269.43,231.34,262.32,196.3,202.38,213.51,333.9,249.97
2010-10-01,270.97,348.51,276.83,233.94,266.54,200.23,203.7,214.59,339.41,261.6
2010-11-01,276.11,358.55,280.71,235.66,267.6,204.47,205.5,217.5,346.33,266.86
2010-12-01,280.81,365.39,287.11,236.73,270.1,207.65,207.03,226.88,354.56,269.79
2011-01-01,283.9,367.0,286.42,239.74,273.05,209.65,212.11,236.36,355.72,272.35
2011-02-01,286.96,371.34,287.86,242.55,274.82,212.88,213.44,240.86,357.27,277.52
2011-03-01,294.59,383.23,303.99,245.94,283.93,217.16,214.39,238.45,395.62,284.61
2011-04-01,302.24,393.74,317.69,249.11,288.22,223.19,222.06,239.48,406.39,288.16
2011-05-01,307.5,399.6,326.36,254.12,293.18,225.92,227.16,244.78,408.67,289.12
2011-06-01,312.13,405.32,333.27,257.22,299.0,227.77,230.28,249.78,413.76,292.54
2011-07-01,317.56,413.37,335.38,259.08,304.82,229.74,235.36,255.32,414.18,300.8
2011-08-01,325.28,422.05,342.74,262.36,315.24,238.54,241.51,266.03,419.0,308.06
2011-09-01,331.52,430.39,354.99,267.41,321.81,242.73,245.93,266.73,424.45,311.37
2011-10-01,335.17,431.53,365.73,272.42,332.1,243.53,249.13,268.31,430.77,315.41
2011-11-01,339.83,434.56,375.91,274.88,343.42,246.84,252.58,271.35,431.12,328.0
2011-12-01,346.17,445.62,380.08,278.37,347.21,251.97,257.45,275.22,431.15,329.73
2012-01-01,350.17,447.44,381.52,281.44,355.64,255.91,261.58,287.73,435.17,332.44
2012-02-01,355.32,455.65,389.29,286.25,360.87,260.29,264.22,287.41,436.69,335.11
2012-03-01,367.36,476.27,399.4,293.76,363.18,263.4,273.07,285.78,499.39,344.27
2012-04-01,374.71,487.63,405.01,300.59,367.16,269.89,276.72,289.05,510.49,356.7
2012-05-01,381.86,496.2,414.42,304.85,380.68,273.9,280.57,299.14,512.03,360.95
2012-06-01,386.96,504.31,418.79,308.63,386.11,278.54,283.87,300.49,516.63,363.61
2012-07-01,396.57,513.54,425.48,309.17,397.09,281.31,288.93,307.0,525.46,368.06
2012-08-01,400.62,525.09,430.8,318.78,402.99,288.95,292.45,305.08,531.08,375.12
2012-09-01,406.92,531.01,441.05,324.99,412.01,292.54,293.56,320.48,533.86,382.36
2012-10-01,413.0,536.14,455.04,328.04,415.08,298.29,299.52,327.52,538.17,393.35
2012-11-01,420.84,549.78,461.14,341.18,420.77,301.17,302.53,329.69,540.1,397.07
2012-12-01,425.81,552.94,464.01,344.18,429.02,309.21,308.57,335.22,544.27,408.03
2013-01-01,432.91,558.89,463.32,353.26,434.62,312.01,314.13,362.14,544.8,414.98
2013-02-01,443.76,578.11,478.0,356.5,447.76,319.24,317.83,362.96,557.09,425.37
2013-03-01,454.75,593.11,501.73,363.49,457.01,320.11,321.47,364.02,641.51,427.79
2013-04-01,462.18,595.16,528.8,375.89,466.66,323.85,330.65,364.53,658.71,429.55
2013-05-01,471.01,603.1,543.16,384.07,472.16,332.29,339.81,373.16,666.92,441.04
2013-06-01,482.06,622.74,553.57,391.82,483.87,339.16,345.21,375.3,673.64,446.75
2013-07-01,492.97,639.29,560.31,400.38,491.17,343.59,354.81,382.33,676.83,461.95
2013-08-01,502.33,650.21,583.97,406.43,502.96,343.77,359.3,392.37,684.91,470.2
2013-09-01,511.88,660.51,606.42,414.11,507.02,356.91,366.57,394.72,695.48,481.29
2013-10-01,529.01,693.1,626.24,416.84,522.28,363.65,371.3,408.97,696.27,497.23
2013-11-01,544.12,722.87,638.44,429.3,534.55,365.07,378.36,410.14,707.03,505.87
2013-12-01,561.83,745.06,651.56,445.6,553.65,376.76,397.38,420.86,711.22,522.47
2014-01-01,585.34,769.86,666.97,461.0,587.1,397.96,428.13,441.16,727.02,532.43
2014-02-01,627.32,837.44,707.38,472.14,624.4,420.13,459.63,470.87,754.68,568.13
2014-03-01,652.39,865.98,748.28,494.6,651.99,424.89,486.14,465.35,852.74,588.26
2014-04-01,665.85,876.22,782.04,517.46,667.49,439.93,494.17,467.92,890.35,595.71
2014-05-01,682.84,890.85,802.23,535.74,675.57,452.85,508.99,491.97,890.77,647.15
2014-06-01,695.13,906.86,818.88,565.58,687.96,457.75,510.61,497.25,903.41,659.62
2014-07-01,708.81,919.31,836.81,574.42,709.12,460.78,529.0,507.93,930.99,665.71
2014-08-01,726.63,942.34,849.35,606.82,729.7,465.27,539.33,518.74,953.89,685.3
2014-09-01,749.11,968.83,887.44,616.78,746.57,473.67,557.78,553.47,961.86,706.02
2014-10-01,758.51,977.79,904.31,578.58,765.81,493.35,574.53,571.77,976.85,719.39
2014-11-01,769.64,990.33,916.57,587.09,790.94,494.48,582.98,582.98,985.0,730.64
2014-12-01,780.99,1003.33,929.72,594.06,800.17,505.52,595.12,585.74,988.48,754.62
2015-01-01,792.74,1018.52,933.09,605.71,810.78,517.32,595.54,615.88,995.77,777.21
2015-02-01,808.61,1023.59,953.66,626.35,829.75,526.29,611.36,669.11,1006.67,788.67
2015-03-01,825.24,1043.69,985.98,640.84,844.16,534.08,613.09,670.56,1128.87,820.6
2015-04-01,840.29,1054.53,1014.57,694.68,859.32,537.24,619.61,663.16,1184.11,841.16
2015-05-01,856.74,1074.69,1041.85,725.78,881.39,544.28,624.59,668.18,1209.51,853.45
2015-06-01,866.25,1076.3,1057.76,735.8,896.94,551.28,631.37,694.14,1213.04,885.72
2015-07-01,886.21,1105.32,1066.54,758.78,906.76,565.91,640.83,720.1,1261.06,901.79
2015-08-01,903.18,1128.18,1092.72,777.46,928.02,576.87,656.39,714.66,1270.38,908.39
2015-09-01,925.23,1143.82,1135.25,797.18,955.91,592.23,670.37,761.05,1289.92,935.06
2015-10-01,938.03,1149.14,1167.92,815.91,980.25,610.56,675.98,771.53,1315.33,957.04
2015-11-01,964.96,1187.68,1184.97,822.11,1037.11,648.73,690.99,785.22,1339.09,975.1
2015-12-01,1027.54,1311.0,1216.97,852.99,1069.23,698.33,730.23,799.93,1345.88,1007.66
2016-01-01,1070.62,1333.58,1236.87,910.78,1154.69,706.66,779.62,910.06,1360.28,1051.02
2016-02-01,1099.66,1365.64,1270.97,997.87,1185.38,713.15,782.36,929.7,1388.51,1095.86
2016-03-01,1132.39,1398.97,1334.94,1006.9,1213.51,733.1,803.05,953.84,1586.58,1137.16
2016-04-01,1170.83,1413.37,1367.61,1228.15,1231.79,753.05,830.69,946.42,1686.53,1150.52
2016-05-01,1219.86,1472.74,1410.35,1260.19,1268.1,771.98,857.51,992.21,1718.87,1357.14
2016-06-01,1237.74,1527.61,1426.27,1088.68,1282.74,797.44,879.85,1053.66,1718.85,1401.69
2016-07-01,1265.75,1591.58,1430.2,1113.01,1282.56,810.5,882.87,1070.23,1758.68,1418.22
2016-08-01,1273.8,1594.5,1443.67,1094.22,1298.44,820.32,898.88,1070.98,1840.79,1438.0
2016-09-01,1295.28,1619.15,1516.86,1109.48,1305.67,829.62,910.99,1075.49,1852.69,1472.4
2016-10-01,1321.6,1644.71,1560.03,1224.53,1322.65,850.42,909.09,1080.55,1870.14,1482.57
2016-11-01,1339.02,1658.77,1572.06,1241.99,1332.22,882.98,916.18,1126.72,1878.55,1521.51
2016-12-01,1350.48,1663.37,1579.0,1260.95,1357.6,902.12,929.59,1133.74,1887.99,1543.11
2017-01-01,1366.86,1676.28,1561.8,1296.54,1377.55,912.19,953.22,1170.02,1887.99,1547.74
2017-02-01,1390.12,1706.31,1543.52,1374.0,1387.87,939.07,968.03,1165.75,1912.45,1594.89
2017-03-01,1433.32,1741.21,1593.5,1424.52,1428.77,958.78,1001.92,1216.03,2206.91,1623.36
2017-04-01,1467.76,1782.53,1636.11,1482.2,1457.93,972.38,1009.35,1247.9,2370.62,1650.88
2017-05-01,1492.43,1813.67,1682.84,1514.87,1462.41,1002.02,1009.17,1289.17,2386.89,1679.91
2017-06-01,1507.73,1819.62,1721.0,1526.4,1473.54,1007.45,1042.62,1286.0,2444.25,1683.8
2017-07-01,1530.15,1841.68,1707.18,1545.62,1490.75,1039.03,1064.96,1312.27,2566.63,1727.99
2017-08-01,1552.09,1886.16,1699.22,1555.67,1531.83,1051.88,1078.71,1300.46,2601.03,1744.24
2017-09-01,1580.79,1917.75,1743.32,1575.82,1571.67,1069.12,1076.22,1386.04,2647.09,1761.67
2017-10-01,1606.59,1939.15,1798.08,1595.62,1594.64,108.17,1100.39,1402.42,2712.52,1800.09
2017-11-01,1630.3,1965.23,1815.32,1623.71,1613.53,1095.92,1131.09,1424.16,2722.87,1819.19
2017-12-01,1678.94,1990.41,1830.87,1918.95,1630.54,1114.35,1161.79,1438.72,2737.33,1846.79
